TimeCDT,TemperatureF,Dew PointF,Humidity,Sea Level PressureIn,VisibilityMPH,Wind Direction,Wind SpeedMPH,Gust SpeedMPH,PrecipitationIn,Events,Conditions,WindDirDegrees,DateUTC
12:53 AM,42.1,26.1,53,30.30,10.0,SE,8.1,-,N/A,,Overcast,140,2012-10-29 05:53:00
1:53 AM,42.1,25.0,51,30.29,10.0,SE,9.2,-,N/A,,Overcast,140,2012-10-29 06:53:00
2:53 AM,42.1,24.1,49,30.29,10.0,SE,9.2,-,N/A,,Overcast,140,2012-10-29 07:53:00
3:53 AM,41.0,25.0,53,30.30,10.0,SSE,6.9,-,N/A,,Overcast,150,2012-10-29 08:53:00
4:53 AM,42.1,24.1,49,30.28,10.0,SE,9.2,-,N/A,,Overcast,140,2012-10-29 09:53:00
5:53 AM,41.0,24.1,51,30.29,10.0,SE,8.1,-,N/A,,Overcast,130,2012-10-29 10:53:00
6:53 AM,41.0,24.1,51,30.30,10.0,SSE,9.2,-,N/A,,Overcast,160,2012-10-29 11:53:00
7:53 AM,41.0,24.1,51,30.30,10.0,SE,8.1,-,N/A,,Overcast,140,2012-10-29 12:53:00
8:53 AM,42.1,25.0,51,30.32,10.0,SSE,8.1,-,N/A,,Mostly Cloudy,150,2012-10-29 13:53:00
9:53 AM,44.1,26.1,49,30.30,10.0,SSE,10.4,-,N/A,,Mostly Cloudy,160,2012-10-29 14:53:00
10:53 AM,46.0,26.1,46,30.30,10.0,SSE,13.8,-,N/A,,Mostly Cloudy,150,2012-10-29 15:53:00
11:53 AM,48.0,27.0,44,30.28,10.0,SSE,13.8,-,N/A,,Mostly Cloudy,150,2012-10-29 16:53:00
12:53 PM,51.1,27.0,39,30.26,10.0,SSE,10.4,-,N/A,,Mostly Cloudy,150,2012-10-29 17:53:00
1:53 PM,52.0,28.0,40,30.23,10.0,SSE,12.7,-,N/A,,Mostly Cloudy,150,2012-10-29 18:53:00
2:53 PM,53.6,28.4,38,30.19,10.0,SE,12.7,-,N/A,,Mostly Cloudy,130,2012-10-29 19:53:00
3:53 PM,55.0,28.0,35,30.16,10.0,SSE,15.0,-,N/A,,Partly Cloudy,150,2012-10-29 20:53:00
4:53 PM,54.0,28.9,38,30.16,10.0,SE,11.5,-,N/A,,Partly Cloudy,140,2012-10-29 21:53:00
5:53 PM,52.0,30.0,43,30.15,10.0,SE,8.1,-,N/A,,Partly Cloudy,140,2012-10-29 22:53:00
6:53 PM,45.0,28.9,53,30.16,10.0,SE,6.9,-,N/A,,Partly Cloudy,140,2012-10-29 23:53:00
7:53 PM,48.0,28.9,48,30.16,10.0,ESE,9.2,-,N/A,,Clear,110,2012-10-30 00:53:00
8:53 PM,44.1,28.9,55,30.14,10.0,ESE,8.1,-,N/A,,Clear,120,2012-10-30 01:53:00
9:53 PM,45.0,28.9,53,30.14,10.0,ESE,11.5,-,N/A,,Clear,110,2012-10-30 02:53:00
10:53 PM,43.0,30.0,60,30.14,10.0,ESE,11.5,-,N/A,,Clear,110,2012-10-30 03:53:00
11:53 PM,42.1,30.0,62,30.13,10.0,ESE,10.4,-,N/A,,Clear,110,2012-10-30 04:53:00